| time (UTC) | temp F | wind direction | speed MPH | gust MPH | rain 1hr in | rain 24hr in | rain mn in | humidity % | barometer mb |
| 20260508041518 | 32 | 0.0 | 0.0 | 0.00 | 0.00 | 0.00 | 90 | 1019.5 | |
| 20260508040518 | 31 | 0.0 | 0.0 | 0.00 | 0.00 | 0.00 | 91 | 1019.4 | |
| 20260508035519 | 31 | 0.0 | 0.0 | 0.00 | 0.00 | 0.00 | 91 | 1019.3 | |
| 20260508034520 | 30 | 0.0 | 0.0 | 0.00 | 0.00 | 0.00 | 91 | 1019.3 | |
| 20260508033541 | 29 | 0.0 | 0.0 | 0.00 | 0.00 | 0.00 | 91 | 1019.1 | |
| 20260508032538 | 29 | 0.0 | 0.0 | 0.00 | 0.00 | 0.00 | 91 | 1019.0 | |
| 20260508031518 | 29 | 0.0 | 0.0 | 0.00 | 0.00 | 0.00 | 90 | 1018.9 | |
| 20260508030539 | 29 | 0.0 | 0.0 | 0.00 | 0.00 | 0.00 | 90 | 1018.7 | |
| 20260508025538 | 29 | 0.0 | 0.0 | 0.00 | 0.00 | 0.00 | 90 | 1018.7 | |
| 20260508024520 | 29 | 0.0 | 0.0 | 0.00 | 0.00 | 0.00 | 90 | 1018.6 | |
| 20260508023521 | 28 | 0.0 | 0.0 | 0.00 | 0.00 | 0.00 | 89 | 1018.6 | |
| 20260508022520 | 28 | 0.0 | 0.0 | 0.00 | 0.00 | 0.00 | 88 | 1018.4 | |
| 20260508021539 | 29 | 0.0 | 0.0 | 0.00 | 0.00 | 0.00 | 88 | 1018.4 | |
| 20260508020520 | 29 | 0.0 | 0.0 | 0.00 | 0.00 | 0.00 | 87 | 1018.4 | |
| 20260508015518 | 29 | 0.0 | 0.0 | 0.00 | 0.00 | 0.00 | 87 | 1018.3 | |
| 20260508014518 | 29 | 0.0 | 0.0 | 0.00 | 0.00 | 0.00 | 86 | 1018.2 | |
| 20260508013518 | 30 | 0.0 | 0.0 | 0.00 | 0.00 | 0.00 | 86 | 1018.2 | |
| 20260508012520 | 30 | 0.0 | 0.0 | 0.00 | 0.00 | 0.00 | 86 | 1018.1 | |
| 20260508011520 | 29 | 0.0 | 0.0 | 0.00 | 0.00 | 0.00 | 86 | 1018.0 | |
| 20260508010520 | 30 | 0.0 | 0.0 | 0.00 | 0.00 | 0.00 | 85 | 1017.8 | |
| 20260508005520 | 30 | 0.0 | 0.0 | 0.00 | 0.00 | 0.00 | 85 | 1017.8 | |
| 20260508004518 | 30 | 0.0 | 0.0 | 0.00 | 0.00 | 0.00 | 85 | 1017.7 | |
| 20260508003524 | 30 | 0.0 | 0.0 | 0.00 | 0.00 | 0.00 | 84 | 1017.6 | |
| 20260508002540 | 31 | 0.0 | 0.0 | 0.00 | 0.00 | 0.00 | 84 | 1017.4 | |
| 20260508001520 | 30 | 0.0 | 0.0 | 0.00 | 0.00 | 0.00 | 84 | 1017.3 | |
| 20260508000520 | 30 | 0.0 | 0.0 | 0.00 | 0.00 | 0.00 | 83 | 1017.1 | |
| 20260507235520 | 31 | 0.0 | 0.0 | 0.00 | 0.00 | 0.00 | 82 | 1017.1 | |
| 20260507234520 | 31 | 0.0 | 0.0 | 0.00 | 0.00 | 0.00 | 82 | 1017.1 | |
| 20260507233523 | 32 | 0.0 | 0.0 | 0.00 | 0.00 | 0.00 | 81 | 1017.1 | |
| 20260507232519 | 32 | 0.0 | 0.0 | 0.00 | 0.00 | 0.00 | 80 | 1016.9 | |
| 20260507231521 | 32 | 0.0 | 0.0 | 0.00 | 0.00 | 0.00 | 80 | 1016.9 | |
| 20260507230520 | 32 | 0.0 | 0.0 | 0.00 | 0.00 | 0.00 | 79 | 1016.8 | |
| 20260507225520 | 33 | 0.0 | 0.0 | 0.00 | 0.00 | 0.00 | 78 | 1016.7 | |
| 20260507224520 | 33 | 0.0 | 0.0 | 0.00 | 0.00 | 0.00 | 76 | 1016.6 | |
| 20260507223520 | 33 | 0.0 | 0.0 | 0.00 | 0.00 | 0.00 | 76 | 1016.6 | |
| 20260507222519 | 33 | 0.0 | 0.0 | 0.00 | 0.00 | 0.00 | 74 | 1016.5 | |
| 20260507221521 | 34 | 0.0 | 0.0 | 0.00 | 0.00 | 0.00 | 73 | 1016.4 | |
| 20260507220520 | 33 | 0.0 | 0.0 | 0.00 | 0.00 | 0.00 | 73 | 1016.4 | |
| 20260507215520 | 34 | 0.0 | 0.0 | 0.00 | 0.00 | 0.00 | 72 | 1016.2 | |
| 20260507214520 | 34 | 0.0 | 0.0 | 0.00 | 0.00 | 0.00 | 71 | 1016.2 | |
| 20260507213540 | 34 | 0.0 | 0.0 | 0.00 | 0.00 | 0.00 | 69 | 1016.1 | |
| 20260507212519 | 35 | 0.0 | 0.0 | 0.00 | 0.00 | 0.00 | 67 | 1016.0 | |
| 20260507211519 | 36 | 0.0 | 0.0 | 0.00 | 0.00 | 0.00 | 65 | 1015.9 | |
| 20260507210519 | 36 | 0.0 | 0.0 | 0.00 | 0.00 | 0.00 | 65 | 1015.9 | |
| 20260507205519 | 37 | 0.0 | 0.0 | 0.00 | 0.00 | 0.00 | 63 | 1015.8 | |
| 20260507204519 | 37 | 0.0 | 0.0 | 0.00 | 0.00 | 0.00 | 61 | 1015.6 | |
| 20260507203600 | 38 | 0.0 | 0.0 | 0.00 | 0.00 | 0.00 | 60 | 1015.6 | |
| 20260507202520 | 39 | 0.0 | 0.0 | 0.00 | 0.00 | 0.00 | 58 | 1015.5 | |
| 20260507201520 | 39 | 0.0 | 0.0 | 0.00 | 0.00 | 0.00 | 58 | 1015.3 | |
| 20260507200519 | 39 | 0.0 | 0.0 | 0.00 | 0.00 | 0.00 | 56 | 1015.3 | |
| 20260507195519 | 40 | 0.0 | 0.0 | 0.00 | 0.00 | 0.00 | 54 | 1015.1 | |
| 20260507194520 | 41 | 0.0 | 0.0 | 0.00 | 0.00 | 0.00 | 51 | 1015.1 | |
| 20260507193519 | 42 | 0.0 | 0.0 | 0.00 | 0.00 | 0.00 | 49 | 1015.0 | |
| 20260507192519 | 43 | 0.0 | 0.0 | 0.00 | 0.00 | 0.00 | 48 | 1014.8 | |
| 20260507191523 | 44 | 0.0 | 0.0 | 0.00 | 0.00 | 0.00 | 46 | 1014.6 | |
| 20260507190519 | 45 | 0.0 | 0.0 | 0.00 | 0.00 | 0.00 | 46 | 1014.5 | |
| 20260507185520 | 46 | 0.0 | 2.0 | 0.00 | 0.00 | 0.00 | 44 | 1014.3 | |
| 20260507184520 | 47 | 0.0 | 0.0 | 0.00 | 0.00 | 0.00 | 44 | 1014.2 | |
| 20260507183523 | 48 | 0.0 | 1.0 | 0.00 | 0.00 | 0.00 | 41 | 1014.0 | |
| 20260507182519 | 48 | 0.0 | 1.0 | 0.00 | 0.00 | 0.00 | 38 | 1013.8 | |
| 20260507181520 | 49 | 0.0 | 0.0 | 0.00 | 0.00 | 0.00 | 35 | 1013.7 | |
| 20260507180523 | 50 | 0.0 | 2.0 | 0.00 | 0.00 | 0.00 | 32 | 1013.5 | |
| 20260507175559 | 51 | 135 | 2.0 | 6.0 | 0.00 | 0.00 | 0.00 | 28 | 1013.3 |
| 20260507174519 | 51 | 0.0 | 2.0 | 0.00 | 0.00 | 0.00 | 27 | 1013.2 | |
| 20260507173519 | 52 | 158 | 2.0 | 6.0 | 0.00 | 0.00 | 0.00 | 26 | 1013.1 |
| 20260507172522 | 52 | 135 | 2.0 | 6.0 | 0.00 | 0.00 | 0.00 | 24 | 1013.0 |
| 20260507171519 | 52 | 135 | 1.0 | 3.0 | 0.00 | 0.00 | 0.00 | 23 | 1012.8 |
| 20260507170539 | 52 | 113 | 3.0 | 7.0 | 0.00 | 0.00 | 0.00 | 22 | 1012.7 |
| 20260507165519 | 53 | 135 | 2.0 | 9.0 | 0.00 | 0.00 | 0.00 | 24 | 1012.6 |
| 20260507164519 | 53 | 113 | 2.0 | 5.0 | 0.00 | 0.00 | 0.00 | 23 | 1012.5 |
| 20260507163540 | 54 | 135 | 2.0 | 7.0 | 0.00 | 0.00 | 0.00 | 22 | 1012.4 |
| 20260507162519 | 55 | 135 | 2.0 | 6.0 | 0.00 | 0.00 | 0.00 | 23 | 1012.2 |
| 20260507161519 | 55 | 158 | 3.0 | 9.0 | 0.00 | 0.00 | 0.00 | 24 | 1012.2 |
| 20260507160519 | 54 | 135 | 2.0 | 6.0 | 0.00 | 0.00 | 0.00 | 26 | 1012.1 |
| 20260507155519 | 55 | 68 | 2.0 | 7.0 | 0.00 | 0.00 | 0.00 | 27 | 1012.1 |
| 20260507154519 | 55 | 158 | 2.0 | 5.0 | 0.00 | 0.00 | 0.00 | 27 | 1012.0 |
| 20260507153519 | 55 | 158 | 4.0 | 10.0 | 0.00 | 0.00 | 0.00 | 28 | 1012.0 |
| 20260507152519 | 55 | 135 | 4.0 | 10.0 | 0.00 | 0.00 | 0.00 | 28 | 1011.9 |
| 20260507151519 | 56 | 113 | 2.0 | 7.0 | 0.00 | 0.00 | 0.00 | 28 | 1011.7 |
| 20260507150519 | 56 | 135 | 3.0 | 10.0 | 0.00 | 0.00 | 0.00 | 28 | 1011.6 |
| 20260507145540 | 57 | 248 | 1.0 | 5.0 | 0.00 | 0.00 | 0.00 | 28 | 1011.6 |
| 20260507144519 | 56 | 135 | 3.0 | 7.0 | 0.00 | 0.00 | 0.00 | 28 | 1011.5 |
| 20260507143519 | 57 | 90 | 2.0 | 8.0 | 0.00 | 0.00 | 0.00 | 28 | 1011.5 |
| 20260507142520 | 57 | 135 | 4.0 | 8.0 | 0.00 | 0.00 | 0.00 | 28 | 1011.4 |
| 20260507141600 | 57 | 135 | 3.0 | 9.0 | 0.00 | 0.00 | 0.00 | 28 | 1011.3 |
| 20260507140519 | 57 | 135 | 3.0 | 7.0 | 0.00 | 0.00 | 0.00 | 28 | 1011.1 |
| 20260507135519 | 56 | 113 | 3.0 | 7.0 | 0.00 | 0.00 | 0.00 | 27 | 1011.1 |
| 20260507134519 | 56 | 180 | 1.0 | 3.0 | 0.00 | 0.00 | 0.00 | 27 | 1011.0 |
| 20260507133524 | 57 | 135 | 2.0 | 6.0 | 0.00 | 0.00 | 0.00 | 25 | 1010.9 |
| 20260507132519 | 57 | 68 | 1.0 | 4.0 | 0.00 | 0.00 | 0.00 | 26 | 1010.9 |
| 20260507131519 | 57 | 45 | 2.0 | 4.0 | 0.00 | 0.00 | 0.00 | 25 | 1010.9 |
| 20260507130519 | 57 | 135 | 2.0 | 5.0 | 0.00 | 0.00 | 0.00 | 24 | 1010.9 |
| 20260507125519 | 57 | 135 | 3.0 | 8.0 | 0.00 | 0.00 | 0.00 | 24 | 1010.7 |
| 20260507124520 | 57 | 90 | 1.0 | 4.0 | 0.00 | 0.00 | 0.00 | 24 | 1010.7 |
| 20260507123519 | 56 | 23 | 1.0 | 4.0 | 0.00 | 0.00 | 0.00 | 25 | 1010.7 |
| 20260507122519 | 56 | 113 | 2.0 | 5.0 | 0.00 | 0.00 | 0.00 | 26 | 1010.7 |
| 20260507121519 | 57 | 0.0 | 3.0 | 0.00 | 0.00 | 0.00 | 25 | 1010.6 | |
| 20260507120518 | 57 | 45 | 2.0 | 5.0 | 0.00 | 0.00 | 0.00 | 24 | 1010.7 |
| 20260507115519 | 58 | 270 | 1.0 | 3.0 | 0.00 | 0.00 | 0.00 | 24 | 1010.6 |
| 20260507114540 | 58 | 135 | 1.0 | 4.0 | 0.00 | 0.00 | 0.00 | 23 | 1010.6 |
| 20260507113519 | 58 | 135 | 1.0 | 3.0 | 0.00 | 0.00 | 0.00 | 23 | 1010.6 |
| 20260507112519 | 57 | 45 | 1.0 | 4.0 | 0.00 | 0.00 | 0.00 | 23 | 1010.5 |
| 20260507111519 | 57 | 270 | 1.0 | 5.0 | 0.00 | 0.00 | 0.00 | 23 | 1010.6 |
| 20260507110521 | 57 | 45 | 3.0 | 8.0 | 0.00 | 0.00 | 0.00 | 23 | 1010.6 |
| 20260507105519 | 57 | 158 | 2.0 | 5.0 | 0.00 | 0.00 | 0.00 | 23 | 1010.6 |
| 20260507104520 | 56 | 270 | 1.0 | 4.0 | 0.00 | 0.00 | 0.00 | 23 | 1010.5 |
| 20260507103519 | 57 | 68 | 1.0 | 4.0 | 0.00 | 0.00 | 0.00 | 22 | 1010.5 |
| 20260507102519 | 56 | 45 | 2.0 | 6.0 | 0.00 | 0.00 | 0.00 | 23 | 1010.4 |
| 20260507101518 | 56 | 113 | 1.0 | 3.0 | 0.00 | 0.00 | 0.00 | 23 | 1010.4 |
| 20260507100539 | 56 | 135 | 2.0 | 4.0 | 0.00 | 0.00 | 0.00 | 24 | 1010.4 |
| 20260507095519 | 55 | 68 | 2.0 | 8.0 | 0.00 | 0.00 | 0.00 | 24 | 1010.4 |
| 20260507094519 | 56 | 0.0 | 3.0 | 0.00 | 0.00 | 0.00 | 25 | 1010.4 | |
| 20260507093518 | 55 | 23 | 1.0 | 3.0 | 0.00 | 0.00 | 0.00 | 25 | 1010.4 |
| 20260507092518 | 54 | 68 | 2.0 | 7.0 | 0.00 | 0.00 | 0.00 | 24 | 1010.4 |
| 20260507091519 | 54 | 45 | 2.0 | 6.0 | 0.00 | 0.00 | 0.00 | 24 | 1010.4 |
| 20260507090519 | 54 | 45 | 2.0 | 5.0 | 0.00 | 0.00 | 0.00 | 23 | 1010.3 |
| 20260507085539 | 55 | 45 | 1.0 | 4.0 | 0.00 | 0.00 | 0.00 | 23 | 1010.3 |
| 20260507084519 | 53 | 45 | 1.0 | 3.0 | 0.00 | 0.00 | 0.00 | 25 | 1010.3 |
| 20260507083518 | 53 | 45 | 1.0 | 3.0 | 0.00 | 0.00 | 0.00 | 26 | 1010.3 |
| 20260507082539 | 53 | 45 | 1.0 | 3.0 | 0.00 | 0.00 | 0.00 | 24 | 1010.2 |
| 20260507081519 | 52 | 45 | 1.0 | 4.0 | 0.00 | 0.00 | 0.00 | 25 | 1010.3 |
| 20260507080519 | 52 | 270 | 1.0 | 6.0 | 0.00 | 0.00 | 0.00 | 28 | 1010.2 |
| 20260507075538 | 51 | 68 | 1.0 | 3.0 | 0.00 | 0.00 | 0.00 | 26 | 1010.2 |
| 20260507074539 | 51 | 68 | 1.0 | 5.0 | 0.00 | 0.00 | 0.00 | 26 | 1010.3 |
| 20260507073519 | 50 | 135 | 2.0 | 4.0 | 0.00 | 0.00 | 0.00 | 28 | 1010.2 |
| 20260507072539 | 50 | 45 | 2.0 | 5.0 | 0.00 | 0.00 | 0.00 | 30 | 1010.2 |
| 20260507071519 | 50 | 135 | 1.0 | 4.0 | 0.00 | 0.00 | 0.00 | 34 | 1010.2 |
| 20260507070539 | 49 | 68 | 2.0 | 5.0 | 0.00 | 0.00 | 0.00 | 33 | 1010.2 |
| 20260507065518 | 49 | 45 | 1.0 | 4.0 | 0.00 | 0.00 | 0.00 | 42 | 1010.2 |
| 20260507064519 | 48 | 68 | 2.0 | 6.0 | 0.00 | 0.00 | 0.00 | 42 | 1010.2 |
| 20260507063518 | 47 | 45 | 2.0 | 6.0 | 0.00 | 0.00 | 0.00 | 44 | 1010.1 |
| 20260507062518 | 47 | 113 | 2.0 | 5.0 | 0.00 | 0.00 | 0.00 | 50 | 1010.1 |
| 20260507061520 | 47 | 45 | 1.0 | 3.0 | 0.00 | 0.00 | 0.00 | 51 | 1010.0 |
| 20260507060539 | 46 | 135 | 2.0 | 4.0 | 0.00 | 0.00 | 0.00 | 55 | 1010.0 |
| 20260507055524 | 45 | 135 | 1.0 | 4.0 | 0.00 | 0.00 | 0.00 | 61 | 1010.0 |
| 20260507054518 | 44 | 113 | 1.0 | 3.0 | 0.00 | 0.00 | 0.00 | 64 | 1009.9 |
| 20260507053519 | 43 | 113 | 1.0 | 4.0 | 0.00 | 0.00 | 0.00 | 67 | 1009.8 |
| 20260507052518 | 43 | 0.0 | 3.0 | 0.00 | 0.00 | 0.00 | 69 | 1009.7 | |
| 20260507051521 | 43 | 0.0 | 0.0 | 0.00 | 0.00 | 0.00 | 73 | 1009.7 | |
| 20260507050543 | 42 | 0.0 | 0.0 | 0.00 | 0.00 | 0.00 | 77 | 1009.7 | |
| 20260507045520 | 41 | 0.0 | 3.0 | 0.00 | 0.00 | 0.00 | 80 | 1009.7 | |
| 20260507044518 | 40 | 0.0 | 0.0 | 0.00 | 0.00 | 0.00 | 85 | 1009.7 | |
| 20260507043559 | 37 | 0.0 | 0.0 | 0.00 | 0.00 | 0.00 | 91 | 1009.7 | |
| 20260507042518 | 34 | 0.0 | 0.0 | 0.00 | 0.00 | 0.00 | 93 | 1009.7 |